FENGYUN 1C DEB

Satellite information

Favourite Embed

Satellite Type and Status

DEBRISIN ORBIT

Key statistics

Satellite FENGYUN 1C DEB at a glance.

Uptime

9715

Days in orbit

Revolutions

≈ 14.1

Per day

Orbit

SSO

Sun Synchronous Orbit

Inclination

98.9

Latest

Satellite identification and parameters

Extended collection of information and parameters for FENGYUN 1C DEB.

Object identification

Identified? True

Debris? True

Object name: FENGYUN 1C DEB

International designator: 1999-025DP

Object number (NORAD): 29821

Object ID (CCSDS): 29821

Country: PEOPLES REPUBLIC OF CHINA (PRC)

Current information (Y/N): Y

RCS size: SMALL

Orbital parameters

Period: 102.05 minutes

Inclination: 98.8739 deg

SMA: 7233.829 km

Apoapsis: 1127.872 km

Periapsis: 583.517 km

RAAN: 42.6064 deg

Eccentricy: 0.03762564

Argument of periapsis: 118.2132 deg

Mean anomaly: 33.894 deg

Mean motion: 14.11075972 rev/day

Mean motion (dot): 0.00003778 rev/day2

B* drag term: 0.00108957 1/REarth

Two-line elements (TLE)

Creation date: Dec. 14, 2025, 3:07 a.m.

Reference frame: TEME

Reference center: EARTH

Epoch: Dec. 13, 2025, 2:53 p.m. UTC

TLE line 0: 0 FENGYUN 1C DEB

TLE line 1: 1 29821U 99025DP 25347.62054697 .00003778 00000-0 10896-2 0 9998

TLE line 2: 2 29821 98.8739 42.6064 0376256 118.2132 33.8940 14.11075972965236

Live tracking on map

Real-time ground track for satellite FENGYUN 1C DEB.

In-orbit conjunctions

A list of the most updated potential collisions computed for object FENGYUN 1C DEB.

Target Orbit TCA Probability of collision Miss distance Type
COSMOS 2406 LEO 2025-09-04 11:58:19 0.0001615568 578.0 (m) PAYLOAD
COSMOS 2251 DEB LEO 2025-07-31 09:28:35 0.0001879163 67.0 (m) DEBRIS
CZ-6A DEB LEO 2024-12-02 02:45:28 0.0003879825 419.0 (m) DEBRIS
COSMOS 2154 LEO 2024-11-16 07:11:05 0.0001872727 632.0 (m) PAYLOAD

Associated space launch

Chinese polar orbiting meteorological satellite

FENGYUN 1C DEB was lifted into orbit during the mission ‘Long March 4B | Feng Yun 1C’, on board a Long March 4B space rocket.

The launch took place on May 10, 1999, 1:33 a.m. from Launch Complex 7.

For more information about the launch, click the button.

Launch to space Long March 4B | Feng Yun 1C
Long March 4B | Feng Yun 1C

Agency: N/A

Status: Launch Successful

Launch date: May 10, 1999, 1:33 a.m. UTC

Rocket: Long March 4B

Launch pad: Launch Complex 7

Location: Taiyuan Satellite Launch Center, People's Republic of China

...

Latest news about this satellite

There are no fresh news available about this satellite. Check back as we update our databases every day.


Newsletter sign-up

Weekly statistics, charts and insights to help you stay on top of the space industry.